Regional Weather Roundup
Issued by NWS

Home | Current Version | Previous Version | Graphics & Text | Print | Product List | Glossary On
Versions: 1 2 3 4 5 6 7 8 9 10 11 12 13 14 15 16 17 18 19 20 21 22 23 24 25 26 27 28 29 30 31 32 33 34 35 36 37 38 39 40 41 42 43 44 45 46 47 48 49 50
000
ASUS43 KDMX 230906
RWRIA

WEATHER ROUNDUP FOR IOWA
NATIONAL WEATHER SERVICE DES MOINES IA
300 AM CST THU NOV 23 2017

NOTE: "FAIR" INDICATES FEW OR NO CLOUDS BELOW 12,000 FEET WITH NO
SIGNIFICANT WEATHER AND/OR OBSTRUCTIONS TO VISIBILITY.

* - THESE STATIONS ARE NOT NWS STATIONS...THUS NOT UNDER NWS
QUALITY CONTROL.  THEY ALSO DO NOT REPORT WEATHER SUCH
AS PRECIPITATION OR FOG.

IAZ001>003-012>014-020>022-031>034-043>046-231000-
   NORTHWEST IOWA

CITY           SKY/WX    TMP DP  RH WIND       PRES   REMARKS
CARROLL *      CLOUDY    34  21  60 W13       29.94S WCI  25
CHEROKEE *     CLOUDY    31  22  70 CALM      29.95S
DENISON *      CLOUDY    32  21  64 S3        29.98R
LE MARS *      CLOUDY    27  21  80 CALM      29.97R
ORANGE CITY *  CLOUDY    28  25  86 NW5       29.95R WCI  23
SHELDON *      CLOUDY    28  19  69 NW5       29.94R WCI  23
SIOUX CITY     CLEAR     26  19  74 CALM      29.98R
SPENCER        CLOUDY    21  17  84 NW5       29.95R WCI  15
STORM LAKE *   CLOUDY    32  21  64 W12       29.93S WCI  23
$$

IAZ055>058-069>071-079>083-090>094-231000-
   SOUTHWEST IOWA

CITY           SKY/WX    TMP DP  RH WIND       PRES   REMARKS
ATLANTIC *     CLEAR     28  21  74 SW8       29.98S WCI  20
AUDUBON *      CLEAR     30  21  69 SW3       29.98R
CLARINDA *       N/A     28  21  74 S5        30.02F WCI  23
COUNCIL BLFS * CLEAR     34  23  64 SW7       29.99R WCI  28
CRESTON *      CLEAR     30  21  69 SW12      29.99F WCI  21
HARLAN  *      CLOUDY    28  21  74 S5        30.02R WCI  23
LAMONI         CLEAR     31  20  63 S12       30.00F WCI  22
RED OAK *      CLEAR     30  21  69 S6        30.00S WCI  24
$$

IAZ047>049-059>061-072>074-084-231000-
   CENTRAL IOWA

CITY           SKY/WX    TMP DP  RH WIND       PRES   REMARKS
AMES           CLOUDY    28  20  71 S6        29.96F WCI  22
ANKENY *       CLEAR     30  18  59 S5        29.99F WCI  25
BOONE *        CLOUDY    32  19  59 SW8       29.94F WCI  25
CHARITON *     CLEAR     34  19  55 SW12      29.99F WCI  25
DES MOINES     CLEAR     32  18  56 S6        29.98F WCI  26
GRINNELL*      CLEAR     30  19  65 S9        29.98F WCI  21
KNOXVILLE *    CLEAR     34  18  51 SW9       29.97F WCI  26
MARSHALLTOWN   CLOUDY    30  19  63 S8        29.96F WCI  22
NEWTON *       CLOUDY    30  18  59 S10       29.98F WCI  21
PELLA *        CLOUDY    32  18  57 SW6       30.00F WCI  26
PERRY *          N/A     26  18  70 S7        29.96F WCI  19
$$

IAZ004>006-015-016-023>025-035-036-231000-
   NORTH CENTRAL IOWA

CITY           SKY/WX    TMP DP  RH WIND       PRES   REMARKS
ALGONA *       CLOUDY    25  19  80 S6        29.93R WCI  18
CLARION *      CLOUDY    25  19  80 S7        29.94S WCI  17
ESTHERVILLE    CLOUDY    28  21  75 W12       29.92R WCI  18
FORT DODGE *   CLOUDY    27  19  72 SW5       29.94S WCI  22
MASON CITY     CLOUDY    23  17  78 S6        29.94S WCI  16
FOREST CITY *    N/A     27  19  74 CALM      29.92F
WEBSTER CITY * CLOUDY    27  18  69 S3        29.93S
IOWA FALLS *     N/A     29  20  70 S5        29.95F WCI  24
$$

IAZ007>011-017>019-026>030-037>042-050>054-066-231000-
   NORTHEAST IOWA

CITY           SKY/WX    TMP DP  RH WIND       PRES   REMARKS
CEDAR RAPIDS   CLEAR     31  18  58 S9        29.98F WCI  23
CHARLES CITY * CLOUDY    27  18  69 S9        29.95S WCI  17
CLINTON *      CLOUDY    33  20  58 S13       30.04F WCI  24
DECORAH *      CLEAR     30  18  59 S8        29.94S WCI  23
DUBUQUE        CLEAR     30  19  63 S12       29.98F WCI  20
MONTICELLO *   CLEAR     30  19  64 S8        29.99F WCI  23
OELWEIN *      CLEAR     28  19  69 S9        29.97S WCI  20
WATERLOO       CLOUDY    28  17  63 S7        29.97S WCI  21
$$

IAZ064-065-067-068-078-231000-
   EAST CENTRAL IOWA

CITY           SKY/WX    TMP DP  RH WIND       PRES   REMARKS
DAVENPORT      CLOUDY    34  18  52 S15       30.06F WCI  24
IOWA CITY      CLEAR     31  20  63 SE6       30.03F WCI  25
MT. PLEASANT * CLEAR     32  18  58 S14       30.05F WCI  22
MUSCATINE *    CLOUDY    32  19  59 S10       30.06F WCI  24
QUAD CITIES    CLOUDY    35  18  49 S8        30.06F WCI  29
$$

IAZ062-063-075>077-085>089-095>099-231000-
   SOUTHEAST IOWA

CITY           SKY/WX    TMP DP  RH WIND       PRES   REMARKS
BURLINGTON     MOCLDY    32  21  64 S9        30.07F WCI  24
FAIRFIELD *    CLEAR     34  18  51 S10       30.02F WCI  26
FORT MADISON * PTCLDY    34  21  60 S8        30.08F WCI  27
KEOKUK *       CLOUDY    32  19  59 S10       30.07F WCI  24
OSKALOOSA *      N/A     29  20  69 S10       30.01F WCI  20
OTTUMWA        CLEAR     32  19  58 S9        30.01F WCI  24
WASHINGTON *   PTCLDY    30  19  64 S12       30.03F WCI  21
$$

ABBREVIATIONS USED IN REMARKS
   TC - TEMPERATURES IN CELSIUS
  WCI - WIND CHILL INDEX
   HX - HEAT INDEX
  VSB - VISIBILITY
$$





USA.gov is the U.S. government's official web portal to all federal, state and local government web resources and services.